Location: Newark
(44.6028°N, 124.0883°W)
Time: 09:01:53
(UTC+00:00)

S-56A Canister/Altair - All Passes

Search period start: 15 October 2019 00:00
Search period end: 25 October 2019 00:00
Orbit: 633 x 2499 km, 38.9° (Epoch: 14 October)

Date Brightness Start Highest point End Pass type
(mag) Time Alt. Az. Time Alt. Az. Time Alt. Az.
15 Oct - 10:36:49 10° S 10:41:29 19° SE 10:47:24 10° E visible
15 Oct - 12:36:55 10° SW 12:44:20 50° SSE 12:55:25 10° E visible
15 Oct - 14:39:44 10° W 14:49:01 66° S 15:02:32 10° ESE daylight
15 Oct - 16:43:39 10° W 16:54:32 53° SSW 17:08:39 10° SE daylight
15 Oct - 18:49:12 10° W 18:59:39 29° SW 19:11:24 10° SSE daylight
16 Oct - 10:05:25 10° SSE 10:08:58 15° SE 10:13:12 10° E visible
16 Oct - 12:04:39 10° SW 12:11:29 45° SSE 12:21:39 10° E visible
16 Oct - 14:07:11 10° WSW 14:15:51 65° S 14:28:46 10° E daylight
16 Oct - 16:10:52 10° W 16:21:12 55° SSW 16:35:07 10° SE daylight
16 Oct - 18:15:58 10° W 18:26:22 31° SW 18:38:31 10° SSE daylight
17 Oct - 09:34:49 10° SE 09:36:29 11° SE 09:38:18 10° ESE visible
17 Oct - 11:32:27 10° SW 11:38:44 40° SSE 11:47:56 10° E visible
17 Oct - 13:34:42 10° WSW 13:42:47 64° S 13:55:01 10° E visible
17 Oct - 15:38:10 10° W 15:47:55 57° SSW 16:01:33 10° ESE daylight
17 Oct - 17:42:53 10° W 17:53:06 34° SSW 18:05:29 10° SSE daylight
17 Oct - 19:53:49 10° WSW 19:57:23 11° SW 20:01:04 10° SW daylight
18 Oct - 11:00:19 10° SSW 11:06:03 35° SSE 11:14:16 10° E visible
18 Oct - 13:02:16 10° WSW 13:09:47 61° S 13:21:16 10° E visible
18 Oct - 15:05:31 10° W 15:14:42 58° SSW 15:27:54 10° ESE daylight
18 Oct - 17:09:53 10° W 17:19:51 36° SSW 17:32:21 10° SSE daylight
18 Oct - 19:18:49 10° WSW 19:24:17 13° SW 19:30:06 10° SSW daylight
19 Oct - 10:28:15 10° SSW 10:33:28 30° SE 10:40:37 10° E visible
19 Oct - 12:29:53 10° WSW 12:36:52 59° S 12:47:33 10° E visible
19 Oct - 14:32:57 10° W 14:41:33 59° S 14:54:14 10° ESE daylight
19 Oct - 16:37:01 10° W 16:46:37 38° SSW 16:59:05 10° SSE daylight
19 Oct - 18:44:40 10° WSW 18:51:10 15° SW 18:58:17 10° SSW daylight
20 Oct - 09:56:18 10° SSW 10:00:55 25° SE 10:07:01 10° E visible
20 Oct - 11:57:32 10° WSW 12:04:02 55° SSE 12:13:53 10° E visible
20 Oct - 14:00:25 10° W 14:08:29 60° S 14:20:33 10° ESE visible
20 Oct - 16:04:14 10° W 16:13:24 40° SSW 16:25:46 10° SE daylight
20 Oct - 18:10:57 10° WSW 18:18:02 17° SW 18:26:03 10° S daylight
21 Oct - 09:24:27 10° S 09:28:25 20° SE 09:33:24 10° E visible
21 Oct - 11:25:15 10° WSW 11:31:16 51° SSE 11:40:17 10° E visible
21 Oct - 13:27:57 10° W 13:35:28 60° S 13:46:53 10° ESE visible
21 Oct - 15:31:32 10° W 15:40:15 42° SSW 15:52:22 10° SE daylight
21 Oct - 17:37:32 10° W 17:44:55 19° SW 17:53:33 10° S daylight
22 Oct - 08:52:47 10° S 08:55:58 16° SE 08:59:42 10° ESE visible
22 Oct - 10:52:59 10° SW 10:58:34 46° SSE 11:06:46 10° E visible
22 Oct - 12:55:32 10° W 13:02:31 59° S 13:13:14 10° ESE visible
22 Oct - 14:58:55 10° W 15:07:10 43° SSW 15:18:54 10° SE daylight
22 Oct - 17:04:19 10° W 17:11:48 21° SW 17:20:50 10° S daylight
23 Oct - 08:21:30 10° SSE 08:23:32 12° SE 08:25:45 10° ESE night (unlit)
23 Oct - 10:20:47 10° SW 10:25:57 41° SSE 10:33:18 10° E visible
23 Oct - 12:23:09 10° WSW 12:29:39 59° S 12:39:37 10° ESE visible
23 Oct - 14:26:21 10° W 14:34:07 45° SSW 14:45:24 10° SE daylight
23 Oct - 16:31:17 10° W 16:38:43 23° SW 16:47:58 10° S daylight
24 Oct - 09:48:36 10° SW 09:53:23 36° SSE 09:59:56 10° E visible
24 Oct - 11:50:48 10° WSW 11:56:52 57° S 12:06:04 10° ESE visible
24 Oct - 13:53:50 10° W 14:01:09 46° SSW 14:11:54 10° SE visible
24 Oct - 15:58:22 10° W 16:05:40 24° SSW 16:14:59 10° SSE daylight
